Showing default

TIANQI-12, 48426

Orbit data source: Space-Track

TIANQI-12, 48426 is a payload satellite owned by Guodian Gaokeji (CN) in LEO that was launched on Thu, 06 May 2021 UTC via a CHANG ZHENG 2C launch vehicle from the Xichang Space Center, China (XSC). Payload-class satellites include a variety of spacecraft equipped with specific instruments for various scientific and technological missions. These include communications satellites like Starlink; space stations such as the ISS; scientific satellites like the Hubble; Earth observation satellites from companies like Planet Labs, Umbra, and HawkEye 360; GPS; miniature CubeSats for education and research; and military/defense satellites.

Loading next visibility...
Identifier
48426, 2021-039D
Orbit
LEO
Country
Flag of CNCN / PRC
Related business
Manufacturer
Shanghai ASES
Mission
Operational Commercial Communications
Bus & Motor
STARLIGHTB, Unknown motor
Mass
40 kg wet, ~40 kg dry
Launch date (UTC)
2021-05-06 (5 years ago)
Launch vehicle
CHANG ZHENG 2C
Launch site
Xichang Space Center, China (XSC)
Object type
Payload
Rocket body
Debris
Shape & HBR
Box, 0.3 m
Radar Cross Section
0.195 m², Medium (>0.1 m² and < 1m²)

Expand to show TLE details & history
Last TLE update: 2 days ago

TLE from 2 days ago
0 TIANQI-12
1 48426U 21039D   26171.41807595  .00004772  00000-0  27259-3 0  9993
2 48426  34.9994 305.7514 0004295 324.4551  35.5874 15.12128703280713
Epoch: 2026-06-20T10:02Z
TLE epoch observation values (Epoch: 2026-06-20T10:02:01.762Z)
Latitude
0.00001°
Longitude
-113.38891°
Altitude
526.21 km
Speed
7.604 km/s
True Right ascension
20h 23m 00s
True Declination
0° 00' 00"
Sunlit
Object was in full shadow at epoch
Visualization orbit readout
Latitude
Unknown
Longitude
Unknown
Altitude
Unknown
Speed
Unknown
Apparent Right ascension
Unknown
Apparent Declination
Unknown
Sunlit
N/A
Visualization observer readout
Local Sidereal Time
21:36:04
Azimuth
Unknown
Elevation
Unknown
Doppler factor
Unknown
Orbital elements
Apogee altitude
535.912 km
Perigee altitude
529.976 km
Semi-major axis
6,911.081 km
Eccentricity
0.00043
Inclination
34.9994°
RAAN
305.7514°
Arg. of periapsis
324.4551°
True anomaly
35.61605°
Mean anomaly
35.5874°
Eccentric anomaly
35.60173°
Mean motion
3.77767 °/min
Orbital period
95.3 mins
BSTAR
0.00027259
Loading maneuver chart data...
Computing Atmospheric mass density...
Loading historical data...
Loading historical data...
Loading historical data...
Loading historical data...
Loading historical data...
Loading historical data...
Loading historical data...
Other satellites on launch #39 in the year 2021 (2021-05-06 UTC)

Documentation

Showing up to 5 results
|